Tracking 29892 objects as of 21-Nov-2024
HD Live streaming from Space Station
objects crossing your sky now

AVUM R/B

Track AVUM R/B now!
10-day predictions


NORAD ID: 49467
Int'l Code: 2021-105D
Perigee: 437.1 km
Apogee: 578.1 km
Inclination: 74.9 °
Period: 94.6 minutes
Semi major axis: 6878 km
RCS: Unknown
Launch date: November 16, 2021
Source: France (FR)
Launch site: FRENCH GUIANA (FRGUI)

Note: This is a ROCKET BODY
Your satellite tracking list
Your tracking list is empty




NASA's NSSDC Master Catalog

Two Line Element Set (TLE):
1 49467U 21105D   24325.90750908  .00008868  00000-0  33938-3 0  9992
2 49467  74.9258 153.1700 0102459 344.9445  14.8712 15.21781232166321
Source of the keplerian elements: AFSPC